Hourly Data Report for July 10, 2017

PITT MEADOWS CS
BRITISH COLUMBIA

49°12'29.964" N
122°41'24.076" W
5.00 m
1106178
71775
WMM

Download Data

Hourly Data (July 2017)
Hourly Data Report for July 10, 2017
TIME
LST
Temp Definition
°C
Dew Point Definition
°C
Rel Hum Definition
%
Precip. Amount Definition
mm

Wind Dir Definition
10's deg

Wind Spd Definition
km/h
Visibility Definition
km
Stn Press Definition
kPa
Hmdx Definition


Wind Chill Definition


Weather Definition


00:00 16.5 13.3 82 0.0 9 4   101.53     LegendNANA
01:00 15.7 13.2 85 0.0 9 4   101.50     LegendNANA
02:00 15.5 13.3 87 0.0 9 8   101.49     LegendNANA
03:00 15.2 12.9 86 0.0 11 5   101.49     LegendNANA
04:00 14.2 12.0 87 0.0 11 5   101.51     LegendNANA
05:00 14.9 12.3 84 0.0 10 4   101.49     LegendNANA
06:00 16.6 13.0 79 0.0 13 4   101.52     LegendNANA
07:00 17.7 12.9 74 0.0 10 7   101.54     LegendNANA
08:00 18.7 13.1 70 0.0 16 5   101.58     LegendNANA
09:00 20.1 13.9 67 0.0 16 4   101.60     LegendNANA
10:00 20.5 12.8 61 0.0 19 5   101.61     LegendNANA
11:00 21.0 12.7 59 0.0 16 6   101.60     LegendNANA
12:00 22.5 9.7 44 0.0 18 11   101.59     LegendNANA
13:00 23.3 10.3 44 0.0 16 10   101.60 25   LegendNANA
14:00 21.6 9.8 47 0.0 23 8   101.61     LegendNANA
15:00 21.7 10.6 49 0.0 24 9   101.60     LegendNANA
16:00 20.7 10.2 51 0.0 20 8   101.61     LegendNANA
17:00 19.9 10.6 55 0.0 18 6   101.62     LegendNANA
18:00 19.7 10.4 55 0.0 17 5   101.62     LegendNANA
19:00 19.2 10.7 58 0.0 15 4   101.63     LegendNANA
20:00 18.3 10.4 60 0.0 19 5   101.64     LegendNANA
21:00 17.0 10.9 67 0.0 17 4   101.69     LegendNANA
22:00 16.8 10.7 67 0.0 14 3   101.71     LegendNANA
23:00 15.7 10.1 69 0.0 15 4   101.72     LegendNANA

Notes on Data Quality.

Legend

  • E = Estimated
  • M = Missing
  • NA = Not Available*
  • [empty] = Indicates an unobserved value
Date modified: